GEC14J ESGG-EDDB

Flight info

Callsign GEC14J
Flight time 1h 4m
Altitude 35000
Route TOPLA L996 ATRIB DCT SALLO DCT USEDU Z14 BEKBA T280 KETAP KETAP1R
Aircraft B77L/H-SDE1E2E3FGHIJ2J3J4J5M1RWXY/LB1D1

Departure

Time 2026-05-07 16:47
Airport Göteborg Landvetter Airport (ESGG)

Arrival

Time 2026-05-07 17:51
Airport Berlin Brandenburg Airport (EDDB)
Time Latitude Longitude Altitude Speed Heading
2026-05-07 16:15 57.67245 12.29714 520 ft 0 kts 116°
2026-05-07 16:40 57.67251 12.29694 520 ft 4 kts 116°
2026-05-07 16:40 57.67262 12.29650 520 ft 2 kts 116°
2026-05-07 16:41 57.67269 12.29614 520 ft 4 kts 65°
2026-05-07 16:41 57.67251 12.29593 520 ft 4 kts 13°
2026-05-07 16:41 57.67231 12.29582 520 ft 0 kts 25°
2026-05-07 16:43 57.67240 12.29590 520 ft 6 kts 26°
2026-05-07 16:43 57.67296 12.29640 520 ft 10 kts 26°
2026-05-07 16:43 57.67341 12.29673 520 ft 6 kts
2026-05-07 16:44 57.67372 12.29616 520 ft 8 kts 298°
2026-05-07 16:44 57.67402 12.29507 520 ft 11 kts 297°
2026-05-07 16:44 57.67439 12.29368 520 ft 6 kts 296°
2026-05-07 16:44 57.67444 12.29349 520 ft 3 kts 294°
2026-05-07 16:45 57.67451 12.29306 520 ft 1 kts 285°
2026-05-07 16:45 57.67455 12.29259 520 ft 7 kts 275°
2026-05-07 16:45 57.67448 12.29111 519 ft 10 kts 263°
2026-05-07 16:45 57.67403 12.28999 520 ft 13 kts 210°
2026-05-07 16:46 57.67386 12.28983 519 ft 0 kts 204°
2026-05-07 16:46 57.67174 12.28797 519 ft 83 kts 206°
2026-05-07 16:46 57.66336 12.28028 519 ft 183 kts 205°
2026-05-07 16:47 57.65069 12.26919 1215 ft 202 kts 208°
2026-05-07 16:47 57.63804 12.25884 2689 ft 198 kts 204°
2026-05-07 16:47 57.62504 12.24979 3491 ft 210 kts 197°
2026-05-07 16:47 57.61040 12.24228 3993 ft 229 kts 199°
2026-05-07 16:48 57.59439 12.23350 4479 ft 247 kts 189°
2026-05-07 16:48 57.57710 12.22937 4998 ft 254 kts 185°
2026-05-07 16:48 57.55930 12.22648 4999 ft 259 kts 183°
2026-05-07 16:48 57.54130 12.22751 5121 ft 260 kts 172°
2026-05-07 16:49 57.52324 12.23250 6100 ft 265 kts 170°
2026-05-07 16:49 57.50483 12.23810 7124 ft 270 kts 171°
2026-05-07 16:49 57.48615 12.24372 8126 ft 274 kts 172°
2026-05-07 16:49 57.46703 12.24932 9103 ft 280 kts 172°
2026-05-07 16:50 57.44760 12.25487 10080 ft 286 kts 173°
2026-05-07 16:50 57.42756 12.26049 10824 ft 299 kts 173°
2026-05-07 16:50 57.40595 12.26643 11103 ft 329 kts 174°
2026-05-07 16:50 57.38223 12.27287 11331 ft 359 kts 174°
2026-05-07 16:51 57.35685 12.27973 11961 ft 374 kts 173°
2026-05-07 16:51 57.33080 12.28678 12874 ft 382 kts 173°
2026-05-07 16:51 57.30428 12.29393 13859 ft 388 kts 173°
2026-05-07 16:51 57.27731 12.30121 14748 ft 393 kts 173°
2026-05-07 16:52 57.25047 12.30842 15623 ft 397 kts 173°
2026-05-07 16:52 57.22292 12.31581 16509 ft 402 kts 173°
2026-05-07 16:52 57.19501 12.32327 17361 ft 408 kts 173°
2026-05-07 16:52 57.16669 12.33081 18204 ft 414 kts 173°
2026-05-07 16:53 57.13802 12.33843 18957 ft 419 kts 173°
2026-05-07 16:53 57.10893 12.34595 19683 ft 424 kts 174°
2026-05-07 16:53 57.07953 12.35326 20403 ft 428 kts 174°
2026-05-07 16:53 57.04985 12.36052 21106 ft 433 kts 174°
2026-05-07 16:54 57.01973 12.36787 21810 ft 438 kts 174°
2026-05-07 16:54 56.98928 12.37533 22516 ft 443 kts 174°
2026-05-07 16:54 56.95855 12.38287 23203 ft 448 kts 174°
2026-05-07 16:54 56.92790 12.39040 23827 ft 453 kts 174°
2026-05-07 16:55 56.89649 12.39811 24393 ft 457 kts 174°
2026-05-07 16:55 56.86485 12.40588 24969 ft 461 kts 174°
2026-05-07 16:55 56.83291 12.41371 25543 ft 465 kts 174°
2026-05-07 16:55 56.80073 12.42159 26109 ft 468 kts 174°
2026-05-07 16:56 56.76826 12.42952 26660 ft 472 kts 174°
2026-05-07 16:56 56.73554 12.43750 27223 ft 475 kts 173°
2026-05-07 16:56 56.66952 12.45355 28287 ft 482 kts 173°
2026-05-07 16:57 56.63605 12.46167 28768 ft 486 kts 173°
2026-05-07 16:57 56.60237 12.46982 29237 ft 490 kts 173°
2026-05-07 16:57 56.56892 12.47790 29693 ft 494 kts 173°
2026-05-07 16:57 56.53476 12.48614 30209 ft 495 kts 173°
2026-05-07 16:58 56.50072 12.49435 30754 ft 493 kts 173°
2026-05-07 16:58 56.46673 12.50251 31303 ft 492 kts 173°
2026-05-07 16:58 56.43286 12.51151 31803 ft 492 kts 170°
2026-05-07 16:58 56.39949 12.52546 32262 ft 492 kts 163°
2026-05-07 16:59 56.36703 12.54500 32757 ft 491 kts 161°
2026-05-07 16:59 56.33476 12.56508 33255 ft 491 kts 161°
2026-05-07 16:59 56.30240 12.58503 33727 ft 490 kts 161°
2026-05-07 16:59 56.27013 12.60469 34174 ft 490 kts 161°
2026-05-07 17:00 56.23782 12.62419 34598 ft 489 kts 162°
2026-05-07 17:00 56.20564 12.64346 35010 ft 488 kts 162°
2026-05-07 17:00 56.17373 12.66248 35143 ft 492 kts 162°
2026-05-07 17:00 56.14075 12.68207 35137 ft 493 kts 162°
2026-05-07 17:01 56.07661 12.72007 35116 ft 484 kts 162°
2026-05-07 17:01 56.01260 12.75790 35138 ft 485 kts 162°
2026-05-07 17:02 55.94818 12.79586 35139 ft 488 kts 162°
2026-05-07 17:02 55.88378 12.83368 35133 ft 491 kts 161°
2026-05-07 17:03 55.81873 12.87174 35131 ft 491 kts 161°
2026-05-07 17:03 55.75382 12.90959 35125 ft 490 kts 162°
2026-05-07 17:04 55.70004 12.94084 35133 ft 488 kts 162°
2026-05-07 17:04 55.63561 12.97817 35129 ft 486 kts 161°
2026-05-07 17:05 55.57129 13.01530 35131 ft 485 kts 161°
2026-05-07 17:05 55.50717 13.05220 35125 ft 483 kts 161°
2026-05-07 17:06 55.44325 13.08885 35121 ft 483 kts 161°
2026-05-07 17:06 55.37932 13.12539 35119 ft 483 kts 161°
2026-05-07 17:07 55.31577 13.16158 35118 ft 483 kts 161°
2026-05-07 17:07 55.25172 13.19794 35125 ft 483 kts 161°
2026-05-07 17:08 55.18764 13.23419 35123 ft 484 kts 161°
2026-05-07 17:08 55.12345 13.27037 35125 ft 484 kts 161°
2026-05-07 17:09 55.05937 13.30640 35130 ft 483 kts 162°
2026-05-07 17:09 54.99545 13.34220 35121 ft 482 kts 162°
2026-05-07 17:10 54.93173 13.37778 35125 ft 480 kts 162°
2026-05-07 17:10 54.86893 13.41438 35119 ft 479 kts 161°
2026-05-07 17:11 54.80630 13.45343 35126 ft 478 kts 160°
2026-05-07 17:11 54.74374 13.49237 35126 ft 477 kts 161°
2026-05-07 17:12 54.68112 13.53083 35127 ft 477 kts 161°
2026-05-07 17:12 54.61853 13.56897 35129 ft 477 kts 161°
2026-05-07 17:13 54.55595 13.60695 35125 ft 477 kts 161°
2026-05-07 17:13 54.49335 13.64483 35126 ft 477 kts 161°
2026-05-07 17:14 54.43118 13.68236 35124 ft 476 kts 161°
2026-05-07 17:14 54.36846 13.72008 34915 ft 480 kts 161°
2026-05-07 17:15 54.33702 13.73895 34596 ft 478 kts 161°
2026-05-07 17:15 54.30581 13.75765 34224 ft 473 kts 161°
2026-05-07 17:15 54.27488 13.77615 33752 ft 467 kts 161°
2026-05-07 17:15 54.24442 13.79436 33279 ft 460 kts 161°
2026-05-07 17:16 54.21441 13.81226 32811 ft 453 kts 161°
2026-05-07 17:16 54.18509 13.82972 32148 ft 440 kts 161°
2026-05-07 17:16 54.15643 13.84677 31509 ft 432 kts 161°
2026-05-07 17:16 54.12816 13.86355 30910 ft 429 kts 162°
2026-05-07 17:17 54.09990 13.88028 30320 ft 429 kts 161°
2026-05-07 17:17 54.07179 13.89692 29661 ft 428 kts 161°
2026-05-07 17:17 54.04380 13.91349 28978 ft 423 kts 161°
2026-05-07 17:17 54.01608 13.92985 28310 ft 420 kts 162°
2026-05-07 17:18 53.98862 13.94589 27655 ft 415 kts 163°
2026-05-07 17:18 53.96063 13.95734 27006 ft 411 kts 172°
2026-05-07 17:18 53.93273 13.96227 26404 ft 409 kts 178°
2026-05-07 17:18 53.90420 13.96179 26007 ft 409 kts 185°
2026-05-07 17:19 53.87603 13.95789 25592 ft 405 kts 185°
2026-05-07 17:19 53.84804 13.95395 25124 ft 403 kts 185°
2026-05-07 17:19 53.82014 13.95011 24648 ft 402 kts 185°
2026-05-07 17:19 53.79219 13.94638 24181 ft 404 kts 185°
2026-05-07 17:20 53.76395 13.94270 23708 ft 411 kts 185°
2026-05-07 17:20 53.73529 13.93902 23128 ft 414 kts 185°
2026-05-07 17:20 53.70662 13.93537 22602 ft 411 kts 185°
2026-05-07 17:20 53.67816 13.93176 22109 ft 408 kts 185°
2026-05-07 17:21 53.65000 13.92818 21629 ft 404 kts 185°
2026-05-07 17:21 53.62221 13.92220 21165 ft 400 kts 191°
2026-05-07 17:21 53.59533 13.91097 20704 ft 397 kts 198°
2026-05-07 17:21 53.56939 13.89733 20241 ft 394 kts 198°
2026-05-07 17:22 53.54328 13.88367 19778 ft 392 kts 198°
2026-05-07 17:22 53.51725 13.87015 19320 ft 390 kts 198°
2026-05-07 17:22 53.49137 13.85683 18851 ft 388 kts 198°
2026-05-07 17:22 53.46564 13.84364 18398 ft 386 kts 198°
2026-05-07 17:23 53.44002 13.83056 17856 ft 384 kts 198°
2026-05-07 17:23 53.41451 13.81758 17363 ft 381 kts 198°
2026-05-07 17:23 53.38922 13.80475 16901 ft 378 kts 198°
2026-05-07 17:23 53.36416 13.79205 16447 ft 374 kts 198°
2026-05-07 17:24 53.33961 13.77961 16002 ft 371 kts 198°
2026-05-07 17:24 53.31503 13.76716 15548 ft 368 kts 198°
2026-05-07 17:24 53.29059 13.75481 15108 ft 365 kts 198°
2026-05-07 17:24 53.26638 13.74259 14669 ft 362 kts 198°
2026-05-07 17:25 53.24238 13.73049 14225 ft 359 kts 198°
2026-05-07 17:25 53.21852 13.71846 13779 ft 356 kts 197°
2026-05-07 17:25 53.19486 13.70656 13293 ft 353 kts 197°
2026-05-07 17:25 53.17142 13.69479 12844 ft 350 kts 197°
2026-05-07 17:26 53.14822 13.68322 12408 ft 346 kts 197°
2026-05-07 17:26 53.12482 13.67465 11986 ft 342 kts 189°
2026-05-07 17:26 53.10120 13.67122 11570 ft 339 kts 184°
2026-05-07 17:26 53.07777 13.66923 11159 ft 336 kts 183°
2026-05-07 17:27 53.05457 13.66719 10828 ft 330 kts 183°
2026-05-07 17:27 53.03224 13.66514 10676 ft 310 kts 183°
2026-05-07 17:27 53.01052 13.66284 10659 ft 321 kts 183°
2026-05-07 17:27 52.98763 13.66034 10629 ft 329 kts 184°
2026-05-07 17:28 52.96529 13.65822 10482 ft 310 kts 184°
2026-05-07 17:28 52.94498 13.65522 10152 ft 286 kts 194°
2026-05-07 17:28 52.92817 13.64104 10065 ft 264 kts 220°
2026-05-07 17:28 52.91567 13.61877 10036 ft 270 kts 235°
2026-05-07 17:29 52.90561 13.59174 10001 ft 280 kts 240°
2026-05-07 17:29 52.89622 13.56324 9911 ft 281 kts 242°
2026-05-07 17:29 52.88707 13.53490 9866 ft 277 kts 242°
2026-05-07 17:29 52.87801 13.50689 9803 ft 274 kts 242°
2026-05-07 17:30 52.86894 13.47904 9690 ft 277 kts 242°
2026-05-07 17:30 52.85974 13.45099 9578 ft 275 kts 242°
2026-05-07 17:30 52.85058 13.42328 9579 ft 274 kts 241°
2026-05-07 17:30 52.84137 13.39551 9581 ft 275 kts 241°
2026-05-07 17:31 52.83210 13.36769 9545 ft 277 kts 241°
2026-05-07 17:31 52.82141 13.34174 9334 ft 274 kts 221°
2026-05-07 17:31 52.80492 13.32692 9128 ft 268 kts 199°
2026-05-07 17:31 52.78721 13.31657 9091 ft 273 kts 200°
2026-05-07 17:32 52.76924 13.30555 9089 ft 277 kts 201°
2026-05-07 17:32 52.75126 13.29424 9089 ft 276 kts 201°
2026-05-07 17:32 52.73357 13.28293 9080 ft 275 kts 201°
2026-05-07 17:32 52.72158 13.27516 9079 ft 274 kts 201°
2026-05-07 17:33 52.69807 13.25982 9071 ft 273 kts 201°
2026-05-07 17:33 52.68037 13.24819 9072 ft 273 kts 202°
2026-05-07 17:33 52.66276 13.23657 9077 ft 272 kts 202°
2026-05-07 17:33 52.64518 13.22495 9074 ft 273 kts 202°
2026-05-07 17:34 52.62755 13.21329 9089 ft 273 kts 202°
2026-05-07 17:34 52.60989 13.20160 9074 ft 274 kts 202°
2026-05-07 17:34 52.59220 13.18989 9083 ft 275 kts 202°
2026-05-07 17:34 52.57446 13.17815 9080 ft 275 kts 202°
2026-05-07 17:35 52.55700 13.16558 9062 ft 271 kts 213°
2026-05-07 17:35 52.54278 13.14548 9083 ft 272 kts 227°
2026-05-07 17:35 52.53000 13.12216 9083 ft 277 kts 229°
2026-05-07 17:35 52.51734 13.09824 9083 ft 277 kts 229°
2026-05-07 17:36 52.50460 13.07446 9074 ft 278 kts 229°
2026-05-07 17:36 52.49172 13.05085 9066 ft 277 kts 228°
2026-05-07 17:36 52.47881 13.02750 9063 ft 276 kts 227°
2026-05-07 17:36 52.46582 13.00428 9065 ft 275 kts 227°
2026-05-07 17:37 52.45283 12.98122 9063 ft 275 kts 227°
2026-05-07 17:37 52.43983 12.95829 9070 ft 274 kts 227°
2026-05-07 17:37 52.42670 12.93521 8918 ft 280 kts 227°
2026-05-07 17:37 52.41329 12.91171 8506 ft 285 kts 227°
2026-05-07 17:38 52.39974 12.88801 8090 ft 282 kts 227°
2026-05-07 17:38 52.38660 12.86506 7657 ft 272 kts 227°
2026-05-07 17:38 52.37380 12.84275 7245 ft 266 kts 227°
2026-05-07 17:38 52.36130 12.82098 6869 ft 266 kts 227°
2026-05-07 17:39 52.34861 12.79890 6468 ft 266 kts 227°
2026-05-07 17:39 52.33591 12.77681 6051 ft 266 kts 227°
2026-05-07 17:39 52.32324 12.75479 5642 ft 266 kts 226°
2026-05-07 17:39 52.31050 12.73267 5229 ft 266 kts 226°
2026-05-07 17:40 52.29787 12.71077 5034 ft 264 kts 226°
2026-05-07 17:40 52.28528 12.68899 5020 ft 263 kts 226°
2026-05-07 17:40 52.27192 12.66861 5011 ft 263 kts 211°
2026-05-07 17:40 52.25485 12.65915 5013 ft 261 kts 181°
2026-05-07 17:41 52.23713 12.66443 5029 ft 259 kts 152°
2026-05-07 17:41 52.22333 12.68275 5003 ft 257 kts 122°
2026-05-07 17:41 52.21672 12.70886 5014 ft 246 kts 100°
2026-05-07 17:41 52.21413 12.73615 5027 ft 248 kts 96°
2026-05-07 17:42 52.21212 12.76424 5028 ft 249 kts 94°
2026-05-07 17:42 52.21159 12.79239 5017 ft 249 kts 86°
2026-05-07 17:42 52.21345 12.82040 5017 ft 248 kts 79°
2026-05-07 17:42 52.21640 12.84813 4747 ft 248 kts 86°
2026-05-07 17:43 52.21657 12.87634 4406 ft 250 kts 88°
2026-05-07 17:43 52.21781 12.90444 4100 ft 245 kts 80°
2026-05-07 17:43 52.22143 12.93081 4046 ft 235 kts 72°
2026-05-07 17:43 52.22629 12.95636 4029 ft 239 kts 73°
2026-05-07 17:44 52.23081 12.98248 4031 ft 244 kts 72°
2026-05-07 17:44 52.23619 13.00876 4025 ft 244 kts 69°
2026-05-07 17:44 52.24208 13.03454 4013 ft 242 kts 68°
2026-05-07 17:44 52.24811 13.06002 4011 ft 240 kts 68°
2026-05-07 17:45 52.25410 13.08513 4001 ft 233 kts 68°
2026-05-07 17:45 52.25988 13.10929 4042 ft 227 kts 68°
2026-05-07 17:45 52.26559 13.13324 4044 ft 225 kts 68°
2026-05-07 17:45 52.27121 13.15678 4030 ft 220 kts 68°
2026-05-07 17:46 52.27664 13.17954 3955 ft 210 kts 68°
2026-05-07 17:46 52.28181 13.20127 3666 ft 198 kts 68°
2026-05-07 17:46 52.28664 13.22153 3400 ft 184 kts 68°
2026-05-07 17:46 52.29111 13.24030 3157 ft 170 kts 68°
2026-05-07 17:47 52.29529 13.25786 2957 ft 164 kts 68°
2026-05-07 17:47 52.29943 13.27523 2735 ft 164 kts 68°
2026-05-07 17:47 52.30359 13.29264 2505 ft 164 kts 67°
2026-05-07 17:47 52.30774 13.31003 2279 ft 164 kts 68°
2026-05-07 17:48 52.31182 13.32728 2059 ft 163 kts 68°
2026-05-07 17:48 52.31590 13.34444 1834 ft 163 kts 68°
2026-05-07 17:48 52.31986 13.36109 1584 ft 155 kts 68°
2026-05-07 17:48 52.32363 13.37691 1388 ft 143 kts 68°
2026-05-07 17:49 52.32661 13.38945 1205 ft 135 kts 68°
2026-05-07 17:49 52.33001 13.40385 968 ft 136 kts 68°
2026-05-07 17:49 52.33352 13.41820 780 ft 137 kts 68°
2026-05-07 17:49 52.33696 13.43263 649 ft 136 kts 69°
2026-05-07 17:50 52.34042 13.44719 474 ft 138 kts 70°
2026-05-07 17:50 52.34268 13.45686 386 ft 138 kts 69°
2026-05-07 17:50 52.34629 13.47166 204 ft 139 kts 70°
2026-05-07 17:50 52.34952 13.48544 159 ft 114 kts 69°
2026-05-07 17:51 52.35168 13.49478 159 ft 49 kts 70°
2026-05-07 17:51 52.35276 13.49826 159 ft 29 kts 49°
2026-05-07 17:51 52.35423 13.50044 159 ft 18 kts 38°
2026-05-07 17:51 52.35551 13.50222 159 ft 16 kts 41°
2026-05-07 17:52 52.35609 13.50331 159 ft 22 kts 60°
2026-05-07 17:52 52.35652 13.50524 159 ft 14 kts 70°
2026-05-07 17:52 52.35682 13.50646 159 ft 11 kts 59°
2026-05-07 17:52 52.35707 13.50680 159 ft 0 kts 18°
2026-05-07 17:53 52.35735 13.50682 159 ft 9 kts 355°
2026-05-07 17:54 52.35838 13.50624 159 ft 20 kts 339°
2026-05-07 17:54 52.35964 13.50544 159 ft 20 kts 339°
2026-05-07 17:54 52.36099 13.50458 159 ft 23 kts 338°
2026-05-07 17:54 52.36240 13.50370 159 ft 27 kts 340°
2026-05-07 17:55 52.36358 13.50298 159 ft 15 kts 339°
2026-05-07 17:55 52.36447 13.50243 159 ft 13 kts 339°
2026-05-07 17:55 52.36519 13.50198 159 ft 3 kts 339°
2026-05-07 17:55 52.36542 13.50176 159 ft 1 kts 309°
2026-05-07 17:56 52.36545 13.50147 159 ft 3 kts 270°
2026-05-07 17:56 52.36541 13.50111 159 ft 4 kts 257°
2026-05-07 17:56 52.36531 13.50067 159 ft 5 kts 249°
2026-05-07 17:56 52.36523 13.50034 159 ft 0 kts 249°